Regional Weather Roundup
Issued by NWS Sioux Falls, SD

Home | Current Version | Previous Version | Text Only | Print | Product List | Glossary On
Versions: 1 2 3 4 5 6 7 8 9 10 11 12 13 14 15 16 17 18 19 20 21 22 23 24 25 26 27 28 29 30 31 32 33 34 35 36 37 38 39 40 41 42 43 44 45 46 47 48 49 50
000
ASUS43 KFSD 270902
RWRFSD

WEATHER ROUNDUP FOR SE SOUTH DAKOTA/SW MINNESOTA/NW IOWA
NATIONAL WEATHER SERVICE SIOUX FALLS SD
400 AM CDT THU APR 27 2017

NOTE: "FAIR" INDICATES FEW OR NO CLOUDS BELOW 12,000 FEET WITH NO
SIGNIFICANT WEATHER AND OR OBSTRUCTIONS TO VISIBILITY.


SDZ038>040-050-052>070-271000-
SOUTHEAST SOUTH DAKOTA

CITY           SKY/WX    TMP DP  RH WIND       PRES   REMARKS
BROOKINGS      CLOUDY    28  24  85 N13       29.63F WCI  17
CHAMBERLAIN    CLOUDY    32  30  92 W7        29.71S WCI  26
HURON          CLOUDY    30  25  81 N10       29.70S WCI  21
MADISON        CLOUDY    28  28 100 NW18      29.64S WCI  16
MITCHELL       CLOUDY    32  26  78 NW13      29.70S WCI  22
SIOUX FALLS    CLOUDY    31  26  82 NW12      29.63F WCI  22
WINNER         FAIR      23  20  88 SW5       29.70F WCI  17
YANKTON        CLOUDY    34  25  69 NW12      29.67S WCI  25
$$

MNZ071-072-080-081-089-090-097-098-271000-
SOUTHWEST MINNESOTA

CITY           SKY/WX    TMP DP  RH WIND       PRES   REMARKS
FAIRMONT       CLOUDY    31  29  92 NW17      29.58S FOG     WCI  19
JACKSON        CLOUDY    30  28  93 NW15G21   29.59R WCI  19
LUVERNE        CLOUDY    30  25  80 N15G22    29.62F WCI  19
MARSHALL       CLOUDY    29  27  92 NW16      29.61F WCI  17
MONTEVIDEO     CLOUDY    30  30 100 N14       29.61S WCI  20
PIPESTONE      CLOUDY    28  21  74 N14G24    29.60F WCI  17
REDWOOD FALLS  CLOUDY    31  28  89 NW8G20    29.59S WCI  23
TRACY          CLOUDY    30  29  97 NW17G23   29.60F FOG     WCI  18
WINDOM         PTCLDY    30  28  93 NW15      29.58S FOG     WCI  19
WORTHINGTON    CLOUDY    28  26  92 NW20      29.60S WCI  15
$$

IAZ001>003-012>014-020>022-031-032-NEZ013-014-SDZ071-271000-
NORTHWEST IOWA

CITY           SKY/WX    TMP DP  RH WIND       PRES   REMARKS
CHEROKEE       CLOUDY    32  29  88 NW8       29.62S WCI  25
DENISON        CLOUDY    34  30  86 NW9G15    29.64R WCI  26
ESTHERVILLE    CLOUDY    30  28  92 NW17      29.59R WCI  18
LE MARS        CLOUDY    34  27  75 NW13      29.64F WCI  25
ORANGE CITY    CLOUDY    30  28  93 NW12      29.61F WCI  21
SHELDON        CLOUDY    30  27  86 NW16      29.60S WCI  19
SIOUX CITY     MOCLDY    33  28  81 NW10      29.64F WCI  25
SPENCER        CLOUDY    31  28  89 NW13      29.60S WCI  21
STORM LAKE     CLOUDY    30  28  93 NW14      29.60S WCI  20
$$

ABBREVIATIONS USED IN REMARKS
   TC - TEMPERATURE IN CELSIUS
  WCI - WIND CHILL INDEX
   HX - HEAT INDEX
  VSB - VISIBILITY




USA.gov is the U.S. government's official web portal to all federal, state and local government web resources and services.